Theta_e
343 345 349 337 320 318 311 315 322 320 320 324 326 326 323 326 322 313 338 344 345 347 352 355 359 357 358 360 361 361 361 361 361 361 362 362 361 361 361 362 362 362 362 361 361 361 362 361 360
340 336 344 330 312 308 310 320 317 321 326 325 329 328 326 324 334 335 338 345 347 349 350 354 361 359 360 360 361 361 360 362 362 361 361 361 360 361 361 361 361 361 362 363 362 362 360 360 360
344 341 326 318 312 311 309 320 322 325 330 328 326 330 329 327 336 338 343 346 348 347 351 354 359 360 360 361 361 361 361 361 361 361 362 361 361 359 360 361 362 362 362 362 363 362 361 360 359
342 338 331 313 312 319 320 322 326 326 329 330 329 324 333 340 338 341 346 349 347 350 352 358 360 361 361 361 362 362 362 361 361 361 362 362 362 362 363 363 363 362 363 363 363 362 361 360 357
344 333 317 316 317 322 325 327 326 324 326 328 329 325 329 339 342 345 345 348 348 351 354 356 363 362 361 361 362 361 361 361 361 362 362 362 363 363 363 363 363 363 363 363 362 360 360 359 358
327 330 314 311 316 322 326 330 327 325 327 329 328 328 330 339 339 343 347 348 352 352 354 353 360 362 361 361 361 361 361 362 361 361 362 362 361 362 362 363 363 363 362 361 360 360 359 358 357
323 320 315 314 314 318 325 332 326 327 326 326 331 324 331 335 335 342 345 349 352 353 352 352 354 359 362 361 361 361 362 362 362 362 361 362 362 364 364 363 360 360 362 361 359 357 356 355 355
327 323 316 316 313 314 328 330 331 329 327 333 333 324 325 336 338 341 345 346 347 351 351 349 351 353 353 355 362 362 362 362 361 362 363 363 363 363 364 366 364 361 358 356 355 355 353 353 353
334 317 312 315 316 319 330 326 333 334 329 330 331 331 336 338 340 340 341 343 342 345 347 349 348 349 351 352 357 360 361 361 361 359 362 362 352 353 356 360 363 361 360 359 358 356 355 355 355
324 315 315 322 324 323 324 327 329 328 326 326 328 335 339 340 337 336 337 337 337 340 344 347 348 349 350 352 351 350 353 352 352 352 354 349 349 350 353 358 361 361 360 360 360 360 359 355 348
326 316 323 323 326 327 325 325 331 328 322 325 327 331 335 335 334 334 337 338 338 341 346 347 348 346 348 348 349 351 350 349 349 349 349 348 350 350 349 348 351 350 358 351 356 356 357 354 352
322 330 326 327 328 326 324 328 328 328 326 332 331 334 333 332 333 335 335 336 338 341 341 346 342 340 341 349 348 349 348 348 347 347 348 347 343 344 344 345 347 347 347 348 348 350 351 350 350
317 325 330 330 329 328 328 325 328 328 334 335 333 332 330 332 334 337 337 338 338 338 336 340 342 344 344 346 346 346 345 344 343 345 346 345 343 341 341 343 344 346 346 346 346 347 347 348 348
322 326 329 329 328 328 326 326 329 331 333 332 331 330 328 332 332 333 336 335 333 336 337 342 345 344 348 344 343 343 346 345 341 343 345 346 345 344 343 342 341 342 344 345 346 344 344 339 338
328 321 325 328 328 327 328 319 321 331 332 329 329 329 330 332 333 335 338 332 334 338 336 341 339 342 341 339 339 343 343 341 339 344 346 345 344 344 346 342 339 342 347 347 344 343 344 346 339
322 323 315 324 325 329 326 310 322 330 330 326 328 329 330 331 333 337 338 338 340 339 338 338 338 344 339 337 338 342 343 341 341 345 349 341 347 345 345 343 346 349 347 347 347 345 341 336 334
320 311 313 318 326 321 323 315 322 327 327 326 326 327 329 330 333 336 340 342 342 340 339 338 343 342 340 337 339 341 343 344 344 344 344 337 349 349 343 339 340 347 342 342 342 344 343 339 334
310 312 313 314 321 321 321 319 323 323 325 325 326 326 328 329 331 335 340 341 341 340 341 344 341 341 337 338 339 342 346 345 344 342 346 350 348 349 344 337 339 342 337 339 341 339 343 335 335
309 312 313 315 323 323 320 319 322 321 323 323 324 327 326 328 331 337 338 340 339 340 340 340 339 341 342 340 340 339 336 342 342 344 346 345 346 345 343 340 335 335 334 339 339 342 346 344 341
304 315 314 318 323 322 320 319 323 321 321 322 325 327 326 330 331 334 336 338 338 339 339 339 339 342 344 341 341 337 336 344 344 347 339 336 346 346 350 336 331 332 333 342 338 338 342 339 343
304 313 314 312 315 322 319 314 318 321 323 323 325 328 329 329 330 332 334 336 339 339 340 340 339 343 342 342 342 341 343 345 343 340 338 335 342 351 348 342 339 334 340 339 337 341 333 330 338
302 318 315 315 309 301 316 299 314 318 318 321 322 325 328 331 333 333 333 335 337 339 341 342 341 343 342 343 341 340 338 336 339 340 343 343 346 349 350 347 344 339 335 336 339 342 329 335 340
305 316 313 315 308 301 303 302 305 319 316 319 321 324 328 331 334 332 333 338 337 339 341 342 342 342 341 341 341 339 340 340 340 342 345 342 345 348 350 346 344 340 334 335 335 346 344 341 340
309 309 307 305 300 294 300 302 304 310 316 321 323 323 326 329 334 334 335 335 339 341 344 344 342 341 343 343 344 342 343 340 338 340 345 343 344 344 348 349 344 341 337 334 333 345 348 341 330
302 296 289 292 293 293 301 301 305 315 318 320 323 324 325 327 332 333 330 332 339 342 344 345 343 341 342 343 345 343 342 341 341 341 341 342 342 342 345 348 347 346 347 349 349 349 349 348 347
297 295 290 286 289 292 302 298 306 317 318 322 323 327 326 326 331 331 330 333 338 343 344 345 343 341 341 343 343 344 344 341 342 343 342 344 344 343 346 347 348 348 349 349 347 348 347 349 347
296 292 297 291 291 293 298 306 313 314 315 319 322 325 324 326 329 331 333 334 336 342 343 344 342 340 342 343 343 344 345 345 342 342 345 344 345 345 347 348 350 350 350 350 346 345 345 347 346
299 299 293 295 289 288 297 300 300 306 311 316 318 320 324 327 328 329 332 333 335 342 343 345 344 340 343 344 344 345 346 345 344 340 344 345 347 347 349 350 350 349 349 349 349 347 346 347 346
301 299 300 299 296 291 290 296 310 309 313 314 317 318 322 326 329 327 332 335 336 337 343 346 344 341 342 344 345 345 346 346 345 346 345 345 346 348 348 346 346 348 349 350 349 347 346 347 344
305 302 298 293 294 295 295 295 315 315 317 315 317 317 323 325 331 331 333 332 337 338 343 346 344 343 343 344 346 346 346 346 346 347 345 343 341 347 347 347 344 345 347 347 347 347 347 345 344
Wind_Speed
4 3 1 3 4 4 5 3 13 15 9 4 9 4 9 4 2 4 7 10 12 10 8 8 11 11 12 13 14 14 14 15 13 11 11 13 12 12 12 13 11 12 12 13 13 12 12 13 12
1 3 2 1 6 3 2 11 19 12 11 15 14 14 10 6 8 13 9 10 13 10 6 7 10 12 12 14 15 13 13 14 13 12 12 12 12 13 13 13 12 11 12 12 12 12 12 13 11
4 3 3 4 4 1 3 10 15 11 16 13 7 12 6 9 13 11 12 15 11 8 7 9 13 11 13 13 15 13 13 13 12 13 13 12 13 13 13 13 13 12 12 11 13 13 12 13 10
2 4 3 5 3 3 3 9 23 23 17 16 13 11 7 3 11 7 16 15 12 9 7 12 16 15 14 14 14 13 13 12 12 14 13 14 13 14 14 14 13 12 11 12 12 12 11 10 7
3 2 4 4 6 7 11 7 16 12 7 15 16 9 12 3 13 18 17 15 15 10 7 10 14 15 15 14 14 13 13 13 13 13 14 13 14 14 15 14 13 11 12 11 12 12 10 9 7
5 2 5 3 7 8 10 12 16 13 15 18 16 10 4 15 18 15 14 12 12 12 8 10 15 15 14 13 13 12 11 11 12 13 13 13 13 13 13 14 14 12 11 10 10 10 8 6 5
7 3 2 3 6 6 5 15 13 16 12 11 14 7 6 10 9 11 11 13 9 9 8 7 6 11 14 14 13 12 12 12 12 13 12 12 12 12 13 13 12 11 9 9 8 7 7 5 5
4 2 5 4 1 8 8 8 11 17 6 15 15 9 11 10 15 11 7 10 9 7 6 5 6 6 5 5 12 13 12 12 12 11 12 12 12 12 12 9 10 11 10 8 6 4 2 1 3
2 3 1 8 9 6 5 8 2 0 16 16 5 14 17 18 15 15 10 11 7 7 6 6 5 6 5 4 6 10 11 11 11 10 11 8 2 5 6 5 9 9 8 6 5 4 3 3 5
2 2 7 9 7 2 5 10 9 3 19 9 15 19 22 21 17 18 15 14 12 9 6 5 6 6 6 5 4 3 3 3 3 4 4 2 1 2 5 5 7 7 6 5 4 4 4 5 2
6 4 5 7 10 4 7 6 3 7 10 19 25 26 22 22 16 15 12 15 12 13 8 7 6 5 6 4 3 2 2 2 2 3 3 3 1 3 1 1 1 2 2 1 2 3 3 4 3
3 5 4 11 9 10 7 1 6 8 14 15 23 26 23 22 18 16 14 12 12 12 11 9 6 6 1 3 3 3 3 3 2 4 5 3 2 3 2 2 1 2 1 3 3 3 5 5 5
18 11 13 9 8 9 8 8 3 5 8 12 14 21 18 20 14 17 17 11 9 12 10 9 7 5 5 4 3 3 4 3 4 4 5 5 4 4 3 3 2 4 3 4 4 4 4 5 7
15 14 8 13 6 10 8 3 3 1 4 13 9 14 10 14 20 13 17 12 11 11 9 8 5 4 5 4 4 3 2 2 4 4 4 5 3 2 2 3 4 4 2 4 3 3 4 4 2
13 9 6 8 8 9 10 6 5 1 7 14 14 12 12 10 11 19 19 18 15 11 11 12 9 6 6 6 5 4 1 1 2 4 4 4 5 4 5 2 1 1 3 2 1 2 4 3 2
8 6 4 4 5 6 5 4 4 1 7 6 14 13 10 12 12 16 15 16 13 11 12 9 10 9 7 7 5 4 3 2 4 4 4 5 5 6 5 4 4 4 3 3 3 1 4 2 3
6 5 2 3 7 3 4 4 4 4 8 5 11 11 11 9 10 12 17 17 14 13 9 8 9 9 7 6 5 5 5 4 4 3 3 4 6 5 6 3 3 3 2 5 4 2 1 2 3
6 8 8 5 4 4 9 9 3 6 7 5 7 7 9 13 13 10 16 16 15 11 9 11 8 7 7 4 3 2 3 4 4 4 3 6 5 5 5 2 4 2 4 4 4 3 2 2 3
6 3 8 2 5 5 10 7 9 7 6 7 7 8 7 12 7 12 14 15 12 9 10 10 10 7 5 1 2 1 3 3 2 3 6 6 5 6 6 1 3 4 3 3 4 3 1 2 1
9 11 1 3 7 7 4 13 5 11 9 10 10 8 9 5 6 9 12 16 13 12 9 7 8 10 7 4 3 3 3 2 3 3 4 6 6 5 5 4 2 3 3 3 4 2 3 2 2
6 9 6 5 3 3 4 5 5 5 5 7 5 9 6 11 8 9 12 15 13 15 13 12 10 11 7 6 2 2 3 3 3 1 2 3 6 6 5 6 4 5 3 3 3 3 4 2 2
3 19 14 14 6 4 10 5 4 5 9 11 13 9 8 10 8 7 13 14 15 14 14 14 11 11 7 7 3 4 4 4 3 4 3 4 6 6 6 6 6 5 3 4 3 4 2 2 3
5 15 16 12 6 3 3 2 6 7 8 13 14 12 11 11 11 10 14 15 16 14 13 12 11 10 7 7 6 5 4 3 4 3 5 5 4 4 6 6 5 4 2 3 2 3 3 1 2
4 2 7 6 3 4 3 4 5 3 6 6 8 13 14 11 11 12 10 10 12 12 12 11 10 8 7 7 7 7 6 6 4 3 4 4 4 3 5 5 5 5 4 3 3 4 3 2 2
8 7 3 4 4 6 6 4 6 4 10 9 10 13 16 14 13 11 10 9 13 14 13 12 12 10 9 8 7 6 8 8 8 7 5 5 3 3 4 6 5 4 5 5 5 4 3 3 1
3 9 7 4 5 7 2 3 2 4 9 13 14 5 11 13 14 12 11 13 13 15 15 15 13 11 11 10 8 7 7 4 4 5 4 5 5 4 5 6 6 5 6 5 4 3 3 3 1
4 2 6 5 3 4 4 5 5 8 14 13 15 15 12 8 10 12 9 12 14 17 18 16 13 13 12 11 8 7 7 6 5 6 3 4 5 5 6 8 8 7 6 6 5 4 4 3 2
3 2 4 5 2 1 4 3 5 6 7 9 12 11 12 10 4 10 12 11 13 16 15 14 14 14 12 10 11 9 7 7 6 5 6 6 6 6 6 6 7 7 6 5 5 4 3 3 3
6 4 7 7 4 5 1 6 2 3 2 3 6 8 11 13 8 8 9 11 8 8 14 14 13 13 12 10 9 9 9 7 7 6 6 6 3 5 5 7 6 6 6 6 6 6 5 4 2
4 4 5 6 3 1 4 7 7 7 4 3 5 11 8 7 15 7 9 2 4 4 15 16 14 14 12 11 9 10 10 8 7 7 7 6 6 5 7 5 5 6 5 6 6 6 5 6 5
Wind_Direction
201 226 128 44 69 52 61 44 119 108 142 162 113 169 138 53 133 159 131 157 144 153 151 146 146 140 138 134 128 129 122 113 116 113 118 105 105 103 107 110 107 116 108 108 108 109 111 106 101
328 255 35 136 76 49 125 130 91 94 98 130 107 82 54 73 63 104 114 164 149 146 136 137 144 135 142 132 126 117 115 112 118 119 112 116 116 106 109 114 113 113 117 118 116 113 111 107 111
322 259 59 56 88 336 64 107 110 121 115 123 105 69 82 109 108 145 137 142 139 129 118 145 141 143 141 136 115 115 120 117 122 122 121 123 115 117 112 111 120 121 122 122 119 113 117 112 114
27 357 30 70 355 34 40 126 116 111 95 106 102 85 72 146 140 148 139 135 125 122 127 142 144 144 135 125 124 131 123 130 133 131 128 125 120 118 118 117 116 122 123 123 119 116 120 115 112
43 31 52 48 11 352 336 156 123 111 127 112 120 114 124 104 125 139 138 136 131 132 140 144 142 143 137 135 132 131 134 135 135 132 123 126 124 124 124 123 119 124 132 123 120 121 126 132 127
35 28 32 37 9 346 298 334 100 92 116 116 112 119 58 137 126 130 128 129 132 135 135 138 143 141 139 134 137 138 136 133 128 126 131 127 126 128 130 125 129 131 133 127 122 127 139 152 140
101 44 88 15 7 343 280 331 104 104 127 134 121 95 120 149 119 128 119 119 122 129 130 133 133 142 143 147 144 144 141 139 136 132 134 133 129 126 134 135 126 129 134 128 130 143 160 174 185
98 95 126 103 309 271 291 315 151 141 167 126 126 147 164 158 149 119 105 116 117 129 126 129 120 109 118 157 148 142 146 141 142 143 144 136 134 126 130 131 132 137 136 134 144 152 208 277 332
18 40 244 160 167 230 249 51 103 309 130 157 136 146 146 142 145 116 121 112 111 125 143 136 134 127 142 146 154 146 152 149 147 154 149 125 130 132 129 143 146 142 143 143 149 170 224 274 286
131 214 213 171 158 239 311 34 336 157 150 140 100 123 144 150 153 141 148 150 154 148 160 158 148 147 158 159 120 133 171 153 157 158 144 137 155 175 168 161 160 156 150 159 182 216 236 254 269
145 223 181 145 119 117 348 322 291 201 151 147 141 148 151 155 153 147 155 160 163 158 158 165 155 150 157 146 150 157 158 153 193 171 163 186 253 240 164 157 299 350 214 307 252 277 267 255 256
357 272 134 135 166 144 192 86 268 150 151 160 142 158 148 147 162 155 149 161 160 163 167 157 153 144 157 162 164 170 180 187 219 216 197 209 231 213 210 202 213 229 242 238 267 259 265 277 283
85 294 131 160 168 120 152 214 287 159 167 155 143 148 147 152 144 164 154 157 157 173 167 172 166 168 176 184 181 189 203 182 179 154 173 184 190 201 186 251 253 247 220 220 235 236 245 258 258
174 214 124 136 156 155 170 261 285 142 145 175 160 138 141 138 144 151 151 157 181 181 166 155 156 165 140 159 182 179 168 229 175 155 146 153 153 150 170 222 254 290 311 299 246 243 218 199 236
151 141 65 119 179 174 197 233 163 310 254 185 151 147 147 140 130 158 158 163 178 186 170 165 159 159 136 170 158 170 200 122 219 148 130 129 135 164 99 73 15 272 9 44 339 308 322 316 330
160 169 119 223 289 163 172 240 179 114 68 154 154 154 149 144 155 154 154 164 180 163 179 164 170 157 161 165 176 139 220 207 219 179 166 166 128 98 98 93 66 42 347 44 66 1 355 7 276
195 115 40 219 210 206 168 247 211 140 92 36 147 146 151 134 145 149 156 165 170 170 161 170 154 164 178 197 152 175 211 227 200 188 157 133 90 96 93 86 93 107 31 48 17 23 23 263 277
166 146 210 212 169 183 199 234 261 154 124 132 148 150 152 161 162 156 156 164 171 171 164 166 152 164 178 164 121 257 257 211 161 179 155 119 133 129 95 76 70 91 58 48 17 349 319 182 212
222 185 116 203 161 183 219 220 204 152 175 171 177 172 185 158 174 161 166 161 173 173 171 166 153 176 148 127 153 248 197 150 157 184 147 142 143 135 125 130 52 69 91 81 34 306 277 69 86
267 137 69 326 187 176 186 235 177 176 193 190 180 192 161 162 154 159 168 169 174 169 174 161 177 167 185 157 185 178 170 152 165 167 164 172 153 164 130 137 103 158 98 118 75 353 10 50 35
250 145 150 247 150 282 21 251 175 189 175 177 213 186 189 168 177 165 163 175 161 170 175 181 182 175 176 173 149 66 58 50 69 80 211 216 175 175 156 154 179 157 190 100 104 49 45 58 337
177 144 135 246 137 209 150 270 241 195 192 182 195 190 179 162 167 158 164 170 176 173 172 181 181 181 175 165 151 148 154 156 202 179 209 200 216 156 168 169 172 166 171 107 95 96 127 140 35
188 159 184 192 176 75 0 88 261 168 206 211 194 196 191 181 172 166 164 179 182 170 173 176 176 183 170 169 179 176 179 165 177 179 177 211 214 185 172 177 165 172 154 161 80 110 202 203 137
129 123 34 49 92 32 253 162 283 64 307 269 199 185 200 192 182 185 179 165 183 175 174 172 174 186 175 168 194 187 193 173 160 178 197 212 206 210 166 188 193 172 172 168 183 224 203 214 200
69 67 358 18 27 218 211 97 234 334 33 358 202 198 193 191 195 186 161 171 174 178 174 173 181 194 189 174 192 189 181 183 182 187 200 193 176 208 203 183 198 186 184 192 183 203 209 205 244
171 150 155 190 191 238 275 189 199 82 26 31 31 288 191 184 193 205 174 181 178 183 178 179 184 189 201 176 190 169 174 178 191 203 189 196 189 198 178 186 203 194 193 200 181 175 219 211 238
291 32 184 127 36 82 301 305 111 32 26 29 28 19 1 341 220 204 171 184 188 187 188 180 182 194 196 194 177 179 181 174 189 195 211 188 210 203 210 188 188 202 195 198 192 203 205 208 274
142 187 32 16 110 126 309 294 241 351 8 23 31 10 332 289 286 230 209 184 197 198 183 177 182 197 195 204 193 184 183 182 198 184 209 203 220 211 199 204 184 190 209 208 206 217 221 181 247
360 39 62 106 105 152 179 262 167 164 250 81 65 47 6 326 272 204 225 214 153 196 173 179 180 192 200 197 207 191 186 187 184 185 192 192 217 193 175 172 175 202 213 208 203 215 213 198 220
160 145 116 120 207 137 145 271 164 139 154 311 36 16 21 342 318 227 194 169 138 155 178 184 186 186 197 192 195 212 191 184 186 196 187 190 205 198 199 194 203 205 217 199 195 215 211 218 227